Temp
60 60 59 60 60 59 59 60 59 59 59 59 60 61 60 59 55 52 51 50 50 54 54 54 55 56 54 53 52 53 50 54 54 50 50 50 48 53 54 54 54 54 53 52 52 51 52 52 53 56 57 57 57 56 54 54 54 55 58 57 56 55 54 54 54 58 60 60 58 55 55 55 56 56
60 59 59 58 58 58 59 59 59 59 59 59 60 60 59 59 58 55 53 52 50 52 53 53 54 53 54 53 52 52 50 55 54 50 50 49 48 53 53 52 51 51 52 51 51 50 51 53 55 57 57 56 55 53 53 53 54 56 58 58 56 55 55 54 56 59 58 57 56 55 54 55 55 55
60 59 59 57 58 58 59 59 58 59 59 59 59 58 59 59 56 56 54 52 51 53 55 54 53 55 53 54 53 53 52 54 54 49 48 49 52 55 52 52 51 51 52 49 49 51 52 52 54 55 56 56 55 55 55 54 55 58 58 54 54 57 57 55 56 58 58 57 57 56 56 56 56 56
60 59 59 58 59 58 58 59 58 58 59 59 58 58 58 56 56 55 54 54 55 52 54 54 53 55 53 53 52 50 52 54 55 49 49 50 54 52 48 52 52 52 51 50 51 55 56 54 55 55 56 56 56 55 55 55 57 57 54 52 53 55 56 55 55 58 58 57 57 57 56 55 55 55
60 60 60 59 58 59 59 59 59 59 59 59 59 59 57 56 55 57 54 54 51 53 50 51 52 52 54 52 52 51 50 50 51 52 48 49 49 48 49 48 51 51 51 50 50 50 51 51 54 54 52 54 53 53 52 53 54 54 52 51 51 52 54 55 55 56 58 57 57 57 56 55 54 54
60 60 60 60 59 59 60 59 59 59 59 59 58 58 58 58 56 56 58 52 52 52 52 51 50 51 53 52 51 52 50 50 50 51 50 49 48 50 48 48 49 50 50 49 49 50 50 50 51 51 49 50 50 51 50 49 49 52 50 49 50 54 55 55 54 53 56 57 57 56 55 55 54 54
60 59 59 59 59 59 58 58 58 57 59 59 59 58 59 59 59 58 59 56 53 52 51 49 51 51 51 51 52 52 51 50 52 51 51 51 52 52 48 49 50 50 50 49 49 49 49 50 50 49 50 49 49 49 50 49 49 48 49 48 50 51 51 51 52 51 53 57 56 55 54 54 54 55
60 60 59 59 59 58 59 58 57 57 58 58 58 58 58 58 60 59 57 58 57 54 54 51 54 52 51 50 51 54 52 51 51 52 51 51 51 51 53 50 51 52 51 50 50 50 50 49 49 49 48 49 49 48 48 49 49 48 48 48 48 49 48 49 49 49 50 55 56 55 54 53 55 57
60 59 60 60 59 58 58 56 56 57 57 58 59 59 59 59 61 59 57 58 56 54 55 52 51 50 51 51 50 54 53 50 50 50 51 52 52 51 51 54 55 53 52 51 50 50 49 49 49 49 49 49 49 48 48 48 49 49 49 48 48 48 48 47 48 48 48 48 50 56 55 53 55 57
60 60 60 59 59 59 59 57 57 57 58 58 58 58 59 60 60 58 56 56 56 56 56 53 50 48 52 50 49 52 53 52 51 50 49 50 51 51 51 52 55 56 56 53 53 51 50 49 49 50 49 48 48 48 48 48 49 49 49 48 48 48 47 47 47 46 43 45 46 49 54 53 54 56
59 59 59 58 59 59 59 59 57 57 57 58 57 58 58 59 59 56 56 56 56 55 54 50 51 50 50 51 51 52 53 52 50 50 49 50 53 51 51 52 54 54 55 53 52 52 51 52 52 50 49 49 49 49 48 49 49 49 49 48 47 48 47 47 47 44 42 44 46 46 48 51 54 56
59 59 58 58 58 59 59 59 58 58 58 57 57 56 58 58 57 55 54 54 54 53 51 51 49 48 49 49 48 51 52 50 50 52 51 51 51 51 51 52 53 52 52 53 54 53 51 51 51 50 50 50 49 49 49 50 50 50 49 48 47 47 47 47 47 44 43 45 46 46 46 46 48 53
55 55 54 54 53 57 59 54 54 57 58 58 56 55 55 57 58 56 53 54 54 52 52 51 50 49 48 48 49 47 46 50 54 51 51 51 52 50 50 53 53 54 53 52 52 53 53 52 52 52 50 52 51 50 50 51 51 50 48 48 47 47 47 47 47 44 43 46 46 46 46 45 45 45
55 55 54 57 58 56 54 51 47 47 51 53 56 57 55 56 57 57 55 53 54 54 52 51 50 49 49 48 50 50 51 52 51 47 49 51 51 49 49 50 52 53 53 53 52 56 55 53 53 51 51 54 52 51 50 50 51 50 48 48 48 48 47 47 47 46 46 46 46 46 46 45 45 43
53 52 52 52 55 54 54 51 46 45 44 42 44 48 52 56 59 57 54 54 53 53 52 49 49 49 50 50 49 50 49 48 51 48 46 49 49 49 47 50 50 48 55 52 51 54 54 52 53 54 53 54 52 51 52 51 50 49 49 48 48 48 47 47 47 46 46 46 46 46 45 44 45 43
52 50 50 49 51 52 53 51 50 49 45 44 44 43 43 42 42 46 53 54 51 50 50 49 50 49 48 46 48 48 49 49 47 49 48 49 49 48 47 45 50 49 52 51 49 52 51 51 52 52 55 56 53 53 51 49 49 48 48 48 47 47 46 46 46 46 45 45 45 45 44 44 44 42
51 49 49 48 48 49 54 52 51 52 50 47 46 46 46 45 45 43 43 45 50 52 53 51 46 46 46 48 47 47 47 46 50 48 47 47 47 48 47 50 50 49 49 50 49 50 53 48 48 50 53 54 53 53 50 49 48 48 48 47 47 46 46 46 46 45 45 45 45 44 44 44 43 43
49 48 48 47 47 47 48 48 52 52 52 52 51 50 49 49 49 47 45 45 46 49 52 51 49 49 48 49 48 50 48 49 48 46 47 47 48 47 49 52 52 51 50 52 47 45 51 48 48 48 52 53 51 51 50 49 48 48 47 47 46 46 46 45 45 45 44 44 44 44 44 43 42 41
47 47 47 47 46 46 47 48 50 54 53 52 51 49 49 49 48 48 49 49 51 52 51 50 50 48 48 48 48 48 47 50 50 50 51 48 48 49 47 49 48 50 49 50 50 49 49 42 45 49 52 51 50 50 48 48 47 47 47 46 46 45 45 45 45 45 44 44 44 43 43 42 42 41
46 46 47 46 45 45 45 45 45 49 52 52 51 49 48 47 46 46 46 43 44 47 49 49 48 46 45 43 46 45 45 46 46 46 46 48 46 47 46 49 44 44 44 47 49 45 43 41 46 45 44 43 47 48 48 47 48 47 46 45 45 45 45 45 45 44 44 44 44 43 42 42 41 40
47 47 46 45 45 44 43 41 42 46 49 50 50 48 47 46 46 45 47 45 43 42 42 43 42 43 43 43 42 42 42 44 44 45 47 46 45 46 45 44 43 46 42 42 49 46 46 42 45 45 42 42 45 46 46 44 44 46 45 45 45 45 45 45 44 44 44 44 43 43 42 42 41 41
45 47 49 48 44 43 42 40 41 44 48 48 47 47 46 46 45 44 44 46 46 44 43 42 42 42 42 43 44 43 44 44 46 49 46 45 44 43 42 42 40 43 42 43 46 48 44 42 43 44 44 43 42 42 41 41 43 44 44 44 44 44 44 44 44 44 44 43 43 43 43 42 41 41
44 44 44 44 43 43 41 39 40 42 46 46 46 46 47 46 45 42 41 42 43 43 45 45 45 45 45 47 47 46 44 45 46 47 46 45 44 43 43 42 41 41 40 41 46 47 44 47 43 45 45 44 44 41 40 41 42 41 42 42 42 44 43 43 43 43 43 43 43 43 42 41 41 40
45 44 43 42 39 39 39 39 40 41 43 47 46 47 47 46 45 42 42 42 43 43 43 43 43 43 42 44 45 45 46 46 47 45 45 44 44 44 45 44 44 45 42 41 44 47 45 45 45 45 47 46 41 42 39 39 40 40 39 39 39 42 43 43 42 43 43 43 43 42 42 42 42 41
44 44 44 43 41 39 39 39 40 40 41 43 45 45 45 42 42 40 42 42 44 43 43 43 43 43 43 43 43 43 44 44 44 44 43 42 42 43 45 45 45 45 46 44 43 47 47 47 46 42 44 44 40 41 40 38 37 37 40 38 37 38 39 40 40 41 42 42 42 42 42 42 42 42
44 43 43 42 40 39 39 40 40 40 40 40 40 35 35 34 37 41 41 41 43 43 43 43 42 42 42 42 42 42 42 42 43 42 41 40 38 39 44 47 46 45 45 43 41 43 44 42 42 43 39 40 41 39 40 38 36 36 36 37 37 37 39 39 39 39 41 41 41 41 41 42 42 42
42 43 42 43 41 39 39 39 40 40 40 40 37 36 36 36 37 40 42 43 43 42 42 42 42 41 41 41 41 41 41 41 41 41 41 40 38 38 38 39 40 43 43 40 41 42 43 41 39 45 43 41 42 39 36 36 36 34 36 37 37 37 37 38 39 39 40 41 41 42 41 41 41 41
42 42 42 41 39 39 39 39 39 38 39 39 38 39 39 39 40 42 42 41 41 40 40 41 40 40 39 40 41 40 41 40 40 40 39 40 38 38 38 36 38 37 37 38 39 41 43 44 42 41 43 42 41 41 41 35 33 34 34 34 35 35 37 37 38 40 41 41 41 41 40 40 40 40
42 40 39 39 40 39 40 39 40 40 39 38 38 39 39 42 40 40 40 39 40 40 38 38 38 39 39 38 39 38 38 37 38 37 40 39 38 37 37 37 37 37 40 41 41 41 41 42 42 40 39 38 39 38 37 38 36 33 34 35 35 36 37 38 38 39 41 41 40 40 40 41 39 40
39 39 39 39 40 40 41 42 41 40 40 38 39 39 40 39 38 37 37 38 38 36 36 37 37 36 36 36 38 36 38 39 38 37 38 38 39 38 38 39 41 40 38 38 39 38 39 40 39 39 38 36 37 37 35 35 35 33 34 35 35 36 37 37 38 39 41 40 40 40 40 40 40 40
41 41 41 40 39 39 38 38 38 39 39 39 39 38 38 37 36 36 35 35 35 34 34 35 35 34 36 36 37 37 37 37 36 36 36 37 37 37 37 36 37 39 40 37 36 36 36 35 35 37 37 36 35 34 36 34 34 35 33 34 37 36 38 39 40 40 41 41 40 40 39 39 39 41
43 42 40 40 41 41 40 39 39 38 38 37 36 37 36 35 35 37 38 37 34 33 33 33 33 34 35 35 34 35 36 36 36 36 36 36 36 36 36 35 35 35 37 37 36 37 38 37 37 36 38 38 37 36 33 34 35 35 36 36 37 40 40 40 41 41 41 40 38 38 38 39 39 39
41 41 40 38 38 37 35 35 35 35 35 34 35 36 35 34 35 35 34 33 32 32 33 32 32 32 32 33 34 34 35 36 35 35 35 35 34 35 33 33 34 34 34 36 36 39 41 41 39 39 40 39 39 36 35 35 34 36 38 39 39 40 39 40 40 40 39 39 38 38 38 38 38 39
38 36 35 35 35 34 34 33 32 32 32 32 32 32 33 33 33 32 32 31 31 31 31 31 31 31 31 32 32 32 32 33 34 34 33 32 32 32 31 32 33 35 35 35 37 38 40 41 39 37 34 33 35 37 36 37 36 38 39 38 40 39 38 38 39 39 40 38 38 37 37 37 38 38
36 36 35 34 34 34 34 33 32 31 31 30 30 30 31 31 31 30 31 30 30 30 30 30 30 30 31 31 31 31 31 31 31 32 31 31 31 31 31 33 34 35 35 36 37 38 37 35 34 33 31 34 33 35 42 41 39 39 39 39 38 38 38 37 38 40 40 39 39 36 34 35 36 38
35 35 34 34 33 33 33 32 32 31 31 31 31 30 31 30 30 30 30 30 30 30 30 30 30 30 30 30 30 30 30 28 30 30 31 31 31 32 33 34 34 35 36 35 35 37 35 33 33 32 31 31 31 32 34 41 41 38 37 35 37 36 37 38 38 39 39 37 37 36 35 37 35 37
34 34 34 33 33 33 33 32 32 32 32 31 31 30 30 30 30 30 29 29 30 30 30 29 29 29 29 28 28 29 28 28 28 29 29 30 30 31 32 33 34 35 36 37 36 37 36 35 35 35 34 32 31 32 35 36 37 40 38 36 35 35 36 36 37 36 36 36 35 35 34 34 35 37
34 34 33 33 33 33 32 32 32 32 32 31 30 31 30 30 31 30 30 31 30 29 29 29 27 27 27 27 28 28 27 28 27 28 28 30 30 30 32 33 34 34 35 36 36 36 37 36 36 35 35 33 32 33 33 34 32 36 39 37 34 34 35 37 36 35 35 35 34 34 34 35 34 35
34 33 33 33 33 33 32 32 32 32 32 32 31 31 31 30 30 31 30 30 30 29 28 28 28 28 28 28 26 26 27 28 28 28 29 30 30 30 31 31 32 33 33 34 36 37 37 36 35 34 34 33 33 33 33 33 34 36 36 39 37 35 35 35 35 34 34 35 34 34 34 35 36 36
33 34 33 33 33 33 33 33 32 32 32 31 31 30 31 29 30 30 30 28 28 27 29 28 28 29 28 27 26 26 28 28 28 27 28 29 30 29 29 30 31 32 33 34 34 34 34 34 34 33 33 32 34 35 34 34 34 33 35 37 39 38 35 33 34 35 36 35 34 33 34 33 33 33
33 33 33 34 34 34 33 33 32 32 32 31 31 32 30 30 30 28 28 28 26 27 27 26 25 25 26 27 26 25 27 27 27 27 28 28 30 30 30 31 29 29 29 31 31 31 32 32 33 33 33 31 31 31 33 33 33 33 34 35 37 37 38 38 35 34 36 34 34 34 33 33 32 28
34 34 34 34 34 33 33 33 32 32 32 31 31 30 28 28 28 32 28 28 26 26 26 26 26 26 27 26 25 26 25 25 25 26 28 27 28 29 30 29 28 28 28 29 30 31 33 32 32 31 31 32 32 32 30 32 33 33 33 33 34 36 36 38 38 38 34 34 33 33 34 33 31 29
35 34 34 33 32 32 32 32 32 32 31 30 30 29 27 27 27 28 26 27 26 26 25 24 23 23 24 24 25 27 26 26 25 25 25 26 26 26 28 28 27 26 26 29 30 31 31 32 32 32 31 32 32 33 32 33 33 33 33 33 34 35 34 36 35 37 36 37 37 35 34 34 30 32
35 34 33 32 32 32 31 32 31 30 30 28 28 28 28 27 26 25 24 23 24 23 23 23 23 23 24 24 26 27 26 26 25 25 26 26 26 25 26 28 29 30 29 29 30 31 31 31 31 31 31 30 31 33 33 33 33 34 34 33 33 34 34 34 33 35 35 35 35 35 37 38 38 39
34 33 32 31 30 30 29 30 29 30 28 29 27 27 27 25 25 24 23 23 23 22 23 23 23 24 24 24 25 27 27 30 28 26 26 26 27 27 27 29 30 31 30 29 29 31 31 30 31 31 31 32 33 34 34 34 33 33 33 33 34 33 33 33 35 35 34 34 34 34 34 35 35 36
MSLP
1018.98 1019.22 1019.34 1019.46 1019.66 1019.86 1020.02 1020.14 1020.22 1020.38 1020.58 1020.70 1020.82 1020.90 1021.10 1021.38 1022.14 1023.10 1023.38 1023.30 1023.22 1023.26 1023.22 1023.42 1023.46 1023.66 1023.82 1023.98 1024.18 1024.26 1024.46 1024.54 1024.66 1024.70 1024.66 1024.78 1024.90 1025.02 1025.06 1025.10 1025.14 1025.14 1025.18 1025.30 1025.42 1025.54 1025.66 1025.70 1025.74 1025.74 1025.78 1025.86 1025.86 1025.82 1025.86 1025.90 1025.98 1026.10 1026.18 1026.26 1026.34 1026.42 1026.46 1026.50 1026.50 1026.50 1026.42 1026.42 1026.50 1026.54 1026.54 1026.54 1026.54 1026.50
1018.94 1019.14 1019.30 1019.42 1019.62 1019.78 1019.90 1020.02 1020.14 1020.30 1020.42 1020.62 1020.74 1020.82 1020.90 1020.98 1021.42 1021.98 1022.70 1022.90 1022.86 1022.90 1023.10 1023.10 1023.18 1023.62 1023.70 1023.90 1024.10 1024.26 1024.42 1024.50 1024.66 1024.78 1024.78 1024.82 1024.94 1025.06 1025.14 1025.22 1025.26 1025.30 1025.30 1025.38 1025.46 1025.54 1025.62 1025.66 1025.66 1025.66 1025.70 1025.74 1025.78 1025.82 1025.82 1025.86 1025.94 1026.02 1026.10 1026.22 1026.34 1026.42 1026.50 1026.54 1026.58 1026.58 1026.58 1026.62 1026.66 1026.66 1026.66 1026.62 1026.58 1026.54
1018.94 1019.10 1019.26 1019.42 1019.62 1019.74 1019.78 1019.94 1020.14 1020.26 1020.42 1020.50 1020.66 1020.86 1020.94 1021.06 1021.18 1021.54 1021.90 1022.70 1022.62 1022.58 1022.82 1022.90 1022.98 1023.14 1023.58 1023.78 1023.98 1024.22 1024.38 1024.46 1024.58 1024.78 1024.82 1024.86 1024.94 1025.02 1025.18 1025.26 1025.34 1025.38 1025.38 1025.42 1025.46 1025.54 1025.58 1025.62 1025.62 1025.58 1025.58 1025.62 1025.66 1025.66 1025.66 1025.74 1025.82 1025.90 1026.02 1026.18 1026.26 1026.34 1026.42 1026.46 1026.50 1026.50 1026.54 1026.54 1026.58 1026.58 1026.58 1026.58 1026.54 1026.50
1018.86 1019.02 1019.18 1019.34 1019.46 1019.66 1019.78 1019.90 1020.10 1020.22 1020.34 1020.42 1020.62 1020.82 1020.98 1021.10 1021.18 1021.46 1021.78 1022.02 1022.10 1022.50 1022.50 1022.62 1022.90 1023.10 1023.50 1023.82 1023.98 1024.22 1024.38 1024.46 1024.54 1024.74 1024.82 1024.82 1024.86 1024.98 1025.14 1025.22 1025.34 1025.38 1025.38 1025.42 1025.46 1025.46 1025.50 1025.54 1025.50 1025.50 1025.50 1025.50 1025.50 1025.50 1025.50 1025.58 1025.66 1025.82 1025.94 1026.10 1026.18 1026.22 1026.30 1026.34 1026.38 1026.34 1026.34 1026.38 1026.42 1026.42 1026.42 1026.42 1026.42 1026.42
1018.78 1018.90 1019.02 1019.14 1019.30 1019.50 1019.70 1019.86 1020.02 1020.18 1020.30 1020.42 1020.58 1020.78 1020.98 1021.14 1021.22 1021.34 1021.74 1022.10 1022.42 1022.54 1022.74 1022.74 1022.90 1023.26 1023.46 1023.90 1024.02 1024.22 1024.38 1024.50 1024.62 1024.74 1024.78 1024.82 1024.82 1024.90 1025.02 1025.14 1025.26 1025.30 1025.34 1025.38 1025.42 1025.46 1025.46 1025.46 1025.38 1025.34 1025.38 1025.38 1025.34 1025.34 1025.38 1025.42 1025.54 1025.66 1025.82 1025.94 1026.06 1026.14 1026.18 1026.22 1026.26 1026.26 1026.18 1026.18 1026.18 1026.18 1026.22 1026.26 1026.34 1026.38
1018.62 1018.82 1018.90 1019.02 1019.22 1019.38 1019.50 1019.78 1019.94 1020.06 1020.26 1020.42 1020.62 1020.78 1020.90 1021.06 1021.18 1021.18 1021.42 1021.98 1022.14 1022.30 1022.66 1022.78 1023.18 1023.38 1023.42 1023.50 1023.98 1023.98 1024.22 1024.42 1024.62 1024.70 1024.74 1024.82 1024.82 1024.86 1024.98 1025.10 1025.14 1025.18 1025.26 1025.30 1025.34 1025.38 1025.38 1025.34 1025.26 1025.22 1025.26 1025.26 1025.22 1025.18 1025.22 1025.30 1025.38 1025.46 1025.58 1025.70 1025.82 1025.90 1025.98 1026.02 1026.06 1026.06 1026.02 1025.98 1026.02 1026.06 1026.14 1026.22 1026.30 1026.34
1018.50 1018.70 1018.82 1018.90 1019.10 1019.38 1019.54 1019.66 1019.86 1020.10 1020.14 1020.30 1020.46 1020.66 1020.78 1020.94 1021.06 1021.22 1021.22 1021.62 1022.02 1022.14 1022.34 1022.78 1022.90 1023.18 1023.46 1023.34 1023.66 1023.94 1024.14 1024.30 1024.50 1024.66 1024.70 1024.70 1024.78 1024.82 1024.94 1024.98 1025.02 1025.02 1025.06 1025.14 1025.18 1025.26 1025.30 1025.26 1025.18 1025.14 1025.10 1025.10 1025.06 1025.06 1025.06 1025.14 1025.22 1025.26 1025.34 1025.46 1025.58 1025.66 1025.74 1025.78 1025.82 1025.86 1025.90 1025.90 1025.98 1026.06 1026.18 1026.26 1026.30 1026.30
1018.34 1018.50 1018.74 1018.86 1019.02 1019.26 1019.42 1019.54 1019.78 1019.98 1020.10 1020.18 1020.30 1020.54 1020.62 1020.74 1020.94 1021.06 1021.26 1021.26 1021.42 1021.86 1022.06 1022.54 1022.54 1023.06 1023.22 1023.46 1023.54 1023.86 1024.10 1024.26 1024.46 1024.54 1024.62 1024.74 1024.74 1024.70 1024.78 1024.82 1024.82 1024.74 1024.82 1024.86 1024.94 1025.02 1025.06 1025.14 1025.10 1025.02 1024.94 1024.90 1024.90 1024.90 1024.90 1024.90 1024.98 1025.06 1025.14 1025.30 1025.46 1025.58 1025.62 1025.66 1025.70 1025.78 1025.86 1025.90 1025.90 1025.98 1026.06 1026.14 1026.14 1026.06
1018.14 1018.38 1018.50 1018.66 1018.90 1019.10 1019.26 1019.46 1019.62 1019.82 1020.02 1020.14 1020.18 1020.42 1020.42 1020.58 1020.74 1020.94 1021.10 1021.22 1021.38 1021.70 1021.86 1022.14 1022.78 1022.94 1023.26 1023.30 1023.38 1023.62 1023.90 1024.18 1024.38 1024.50 1024.50 1024.50 1024.54 1024.66 1024.62 1024.66 1024.54 1024.50 1024.62 1024.66 1024.70 1024.78 1024.86 1024.90 1024.90 1024.82 1024.78 1024.82 1024.82 1024.82 1024.82 1024.82 1024.82 1024.86 1024.98 1025.18 1025.34 1025.42 1025.46 1025.50 1025.58 1025.70 1025.82 1025.90 1025.90 1025.82 1025.82 1025.86 1025.86 1025.82
1018.02 1018.18 1018.38 1018.58 1018.78 1018.94 1019.02 1019.18 1019.34 1019.58 1019.82 1020.14 1020.30 1020.30 1020.38 1020.38 1020.54 1020.82 1020.98 1021.18 1021.34 1021.50 1021.58 1021.90 1022.38 1022.86 1022.82 1023.06 1023.14 1023.42 1023.58 1023.82 1024.14 1024.34 1024.42 1024.46 1024.46 1024.50 1024.50 1024.38 1024.30 1024.26 1024.34 1024.42 1024.46 1024.62 1024.70 1024.66 1024.62 1024.58 1024.58 1024.66 1024.70 1024.70 1024.66 1024.62 1024.58 1024.62 1024.74 1024.90 1024.98 1025.06 1025.14 1025.22 1025.30 1025.42 1025.58 1025.66 1025.74 1025.70 1025.62 1025.66 1025.70 1025.70
1017.90 1018.06 1018.22 1018.46 1018.62 1018.70 1018.74 1018.90 1019.10 1019.34 1019.66 1019.94 1020.10 1020.14 1020.22 1020.22 1020.46 1020.78 1020.94 1021.10 1021.30 1021.46 1021.70 1022.10 1022.18 1022.34 1022.78 1022.74 1022.94 1023.30 1023.54 1023.78 1023.90 1023.98 1024.18 1024.18 1024.06 1024.26 1024.22 1023.98 1023.90 1024.02 1024.06 1024.06 1024.14 1024.18 1024.26 1024.34 1024.38 1024.26 1024.30 1024.38 1024.38 1024.34 1024.30 1024.26 1024.22 1024.26 1024.30 1024.42 1024.50 1024.58 1024.66 1024.82 1024.94 1025.10 1025.22 1025.34 1025.42 1025.50 1025.54 1025.54 1025.58 1025.62
1017.78 1017.94 1018.14 1018.26 1018.38 1018.46 1018.54 1018.66 1018.86 1019.06 1019.38 1019.70 1019.86 1019.98 1020.02 1020.14 1020.34 1020.58 1020.82 1021.02 1021.22 1021.50 1021.74 1021.82 1021.98 1022.18 1022.42 1022.78 1022.90 1023.18 1023.54 1023.66 1023.86 1023.70 1023.62 1023.46 1023.34 1023.54 1023.78 1023.78 1023.70 1023.74 1023.94 1023.86 1023.86 1023.94 1024.06 1024.02 1023.94 1023.94 1023.98 1024.02 1024.02 1024.06 1024.06 1023.94 1023.86 1023.82 1023.90 1023.90 1023.98 1024.06 1024.18 1024.34 1024.50 1024.74 1024.86 1024.98 1025.14 1025.26 1025.42 1025.54 1025.66 1025.74
1018.06 1018.30 1018.46 1018.62 1018.70 1018.70 1018.86 1019.02 1019.06 1019.10 1019.30 1019.54 1019.78 1019.90 1019.94 1019.94 1019.90 1020.22 1020.78 1020.78 1021.10 1021.38 1021.62 1021.90 1022.10 1022.22 1022.30 1022.54 1022.66 1022.94 1023.26 1023.10 1022.50 1022.86 1023.50 1023.38 1023.22 1023.54 1023.62 1023.46 1023.62 1023.66 1023.66 1023.66 1023.78 1023.58 1023.50 1023.66 1023.54 1023.54 1023.66 1023.34 1023.38 1023.54 1023.58 1023.58 1023.54 1023.50 1023.38 1023.30 1023.34 1023.50 1023.70 1023.86 1024.06 1024.30 1024.46 1024.66 1024.86 1025.06 1025.26 1025.50 1025.70 1025.86
1018.26 1018.50 1018.62 1018.74 1018.74 1018.78 1018.90 1018.98 1019.02 1019.10 1019.18 1019.30 1019.46 1019.66 1020.06 1020.06 1019.94 1019.98 1020.54 1020.90 1020.94 1021.14 1021.46 1021.62 1021.82 1022.06 1022.10 1022.30 1022.30 1022.30 1022.22 1022.46 1022.82 1022.82 1023.30 1023.26 1023.26 1023.74 1023.58 1023.54 1023.14 1023.18 1023.50 1023.50 1023.38 1022.86 1022.90 1023.18 1023.06 1023.22 1023.18 1022.54 1022.86 1022.90 1023.06 1022.90 1022.62 1022.66 1022.74 1022.82 1022.94 1023.06 1023.22 1023.42 1023.66 1023.90 1024.26 1024.54 1024.74 1024.98 1025.22 1025.50 1025.74 1025.94
1018.42 1018.70 1018.90 1019.02 1018.98 1018.94 1018.98 1019.14 1019.26 1019.46 1019.58 1019.66 1019.74 1019.70 1019.66 1019.70 1019.70 1019.94 1020.38 1020.46 1020.94 1020.98 1021.10 1021.50 1021.74 1021.66 1021.74 1021.94 1022.22 1022.22 1022.50 1022.58 1022.66 1022.90 1023.06 1023.22 1023.50 1023.38 1023.54 1023.26 1022.50 1022.86 1022.98 1023.22 1023.26 1022.70 1022.42 1022.94 1022.86 1022.54 1022.58 1022.18 1022.30 1022.46 1022.34 1022.10 1022.38 1022.62 1022.74 1022.94 1023.14 1023.38 1023.58 1023.78 1023.94 1024.10 1024.34 1024.70 1025.02 1025.30 1025.58 1025.82 1025.98 1026.14
1018.54 1018.78 1019.06 1019.30 1019.38 1019.30 1019.46 1019.62 1019.62 1019.78 1019.86 1019.98 1020.10 1020.22 1020.22 1020.18 1020.30 1020.22 1020.06 1020.18 1020.62 1020.78 1020.94 1021.22 1021.30 1021.46 1021.62 1021.94 1022.10 1022.14 1022.26 1022.34 1022.50 1022.58 1022.78 1022.90 1023.02 1023.22 1023.34 1023.30 1022.86 1022.54 1022.86 1022.90 1023.10 1022.58 1022.18 1022.62 1022.62 1022.46 1022.02 1021.82 1021.98 1022.10 1022.06 1022.14 1022.26 1022.38 1022.58 1022.82 1023.10 1023.30 1023.62 1023.90 1024.22 1024.46 1024.66 1024.78 1024.94 1025.14 1025.42 1025.62 1025.90 1026.06
1018.90 1019.06 1019.18 1019.34 1019.62 1019.78 1019.78 1019.78 1019.74 1019.90 1020.14 1020.10 1020.06 1020.34 1020.62 1020.66 1020.58 1020.50 1020.54 1020.54 1020.38 1020.50 1020.58 1020.82 1021.34 1021.42 1021.50 1021.66 1022.06 1022.14 1022.10 1022.22 1022.10 1022.34 1022.66 1022.90 1023.06 1023.18 1023.10 1022.94 1022.66 1022.42 1022.74 1022.70 1022.74 1022.54 1021.94 1022.30 1022.34 1022.34 1021.74 1021.58 1021.58 1021.70 1021.74 1021.74 1021.90 1021.98 1022.06 1022.18 1022.34 1022.58 1022.78 1023.06 1023.42 1023.82 1024.02 1024.26 1024.54 1024.86 1025.22 1025.46 1025.70 1026.02
1019.30 1019.38 1019.34 1019.38 1019.58 1019.94 1019.94 1019.90 1019.74 1019.90 1020.18 1020.38 1020.50 1020.70 1020.86 1020.86 1020.78 1020.66 1020.78 1020.82 1020.90 1020.86 1020.90 1021.06 1021.42 1022.02 1021.90 1021.66 1022.02 1022.26 1022.26 1022.06 1022.06 1022.18 1022.22 1022.38 1022.54 1022.78 1022.70 1022.42 1022.42 1022.38 1022.62 1022.38 1022.54 1022.50 1021.98 1022.02 1022.14 1022.10 1021.54 1021.50 1021.58 1021.54 1021.42 1021.38 1021.42 1021.50 1021.62 1021.74 1021.86 1022.06 1022.34 1022.74 1023.10 1023.42 1023.82 1024.14 1024.34 1024.46 1024.70 1025.02 1025.26 1025.54
1019.74 1019.86 1019.90 1019.94 1020.06 1020.10 1020.06 1020.22 1020.10 1020.02 1020.18 1020.38 1020.70 1020.94 1021.18 1021.22 1021.22 1021.18 1021.10 1021.06 1021.02 1021.14 1021.30 1021.54 1021.82 1022.14 1022.26 1022.26 1022.30 1022.30 1022.30 1022.22 1022.26 1022.38 1022.38 1022.50 1022.58 1022.58 1022.62 1022.50 1022.38 1022.22 1022.34 1022.46 1022.58 1022.14 1021.70 1021.98 1021.86 1021.54 1021.34 1021.30 1021.38 1021.22 1021.14 1021.14 1021.10 1021.14 1021.22 1021.38 1021.62 1021.82 1021.94 1022.10 1022.22 1022.38 1022.78 1023.26 1023.46 1023.62 1023.86 1024.06 1024.46 1024.78
1020.10 1020.18 1020.10 1020.14 1020.34 1020.34 1020.30 1020.38 1020.30 1020.26 1020.26 1020.38 1020.66 1020.98 1021.34 1021.54 1021.62 1021.78 1021.94 1021.86 1021.86 1021.74 1021.78 1021.90 1022.14 1022.38 1022.46 1022.46 1022.46 1022.54 1022.54 1022.50 1022.50 1022.50 1022.62 1022.70 1022.78 1022.62 1022.26 1022.22 1022.26 1022.10 1022.26 1022.46 1022.38 1022.30 1021.66 1021.94 1021.86 1021.26 1021.26 1021.46 1021.06 1020.94 1020.90 1020.90 1020.98 1020.94 1020.98 1021.14 1021.30 1021.46 1021.70 1021.78 1021.86 1022.06 1022.18 1022.42 1022.90 1023.42 1023.78 1023.98 1024.22 1024.38
1020.38 1020.50 1020.46 1020.46 1020.50 1020.54 1020.58 1020.74 1020.58 1020.62 1020.46 1020.50 1020.82 1021.22 1021.50 1021.74 1021.78 1022.14 1022.18 1022.22 1022.22 1022.26 1022.30 1022.38 1022.46 1022.54 1022.58 1022.58 1022.62 1022.58 1022.58 1022.54 1022.50 1022.34 1022.10 1022.46 1023.14 1022.46 1022.18 1022.26 1022.30 1022.10 1022.26 1022.22 1022.26 1022.14 1021.78 1021.74 1021.70 1021.22 1021.02 1021.02 1020.94 1020.66 1020.82 1021.06 1021.06 1021.06 1021.06 1021.14 1021.22 1021.42 1021.50 1021.58 1021.82 1022.02 1022.22 1022.54 1022.86 1023.18 1023.46 1023.78 1024.10 1024.38
1020.86 1020.94 1020.82 1020.86 1020.90 1020.82 1020.90 1020.94 1020.86 1020.90 1020.70 1020.54 1020.98 1021.06 1021.18 1021.42 1021.86 1022.46 1022.70 1022.58 1022.58 1022.54 1022.62 1022.74 1022.86 1022.94 1023.06 1023.06 1023.06 1023.06 1022.98 1022.90 1022.82 1022.58 1022.94 1023.34 1023.26 1022.98 1023.22 1023.02 1022.90 1022.74 1022.58 1022.30 1022.58 1022.18 1021.98 1021.94 1021.86 1021.46 1021.14 1021.10 1021.06 1021.18 1021.38 1021.34 1021.30 1021.26 1021.22 1021.26 1021.38 1021.50 1021.58 1021.70 1021.94 1022.14 1022.42 1022.70 1022.94 1023.18 1023.42 1023.66 1023.98 1024.26
1021.06 1021.22 1021.38 1021.42 1021.34 1021.26 1021.26 1021.10 1021.10 1021.06 1020.82 1020.78 1020.94 1021.02 1020.86 1021.50 1022.14 1022.86 1023.06 1022.82 1022.78 1022.86 1022.94 1023.14 1023.18 1023.22 1023.30 1023.26 1023.22 1023.26 1023.22 1023.14 1023.14 1023.18 1023.30 1023.34 1023.14 1023.14 1023.26 1023.38 1023.30 1023.02 1022.34 1022.38 1022.54 1022.22 1021.94 1022.02 1021.98 1022.02 1021.50 1021.18 1021.10 1021.54 1021.58 1021.54 1021.58 1021.58 1021.54 1021.54 1021.58 1021.66 1021.78 1021.98 1022.14 1022.30 1022.46 1022.66 1022.90 1023.14 1023.42 1023.70 1023.90 1024.14
1021.26 1021.38 1021.50 1021.66 1021.74 1021.58 1021.38 1021.34 1021.30 1021.34 1021.30 1021.26 1021.54 1021.42 1021.06 1021.46 1022.34 1023.22 1023.38 1023.34 1023.18 1023.26 1023.30 1023.50 1023.54 1023.58 1023.62 1023.58 1023.50 1023.46 1023.38 1023.38 1023.38 1023.50 1023.54 1023.58 1023.38 1023.22 1023.34 1023.38 1023.50 1023.34 1022.94 1022.50 1022.78 1022.54 1022.26 1022.22 1022.06 1022.14 1021.98 1022.02 1021.46 1021.02 1021.34 1021.34 1021.78 1021.74 1021.74 1021.74 1021.82 1021.82 1021.94 1022.10 1022.26 1022.38 1022.58 1022.74 1022.94 1023.22 1023.46 1023.62 1023.78 1024.02
1021.46 1021.58 1021.70 1021.78 1021.82 1021.82 1021.74 1021.66 1021.62 1021.66 1021.74 1021.74 1021.82 1021.90 1021.94 1022.22 1022.82 1023.22 1023.10 1023.30 1023.26 1023.26 1023.42 1023.54 1023.62 1023.66 1023.62 1023.62 1023.66 1023.66 1023.66 1023.66 1023.62 1023.58 1023.62 1023.74 1023.70 1023.50 1023.46 1023.54 1023.54 1023.38 1023.14 1022.90 1023.02 1022.90 1022.70 1022.38 1022.22 1022.06 1021.86 1021.86 1021.58 1021.38 1021.50 1021.62 1021.78 1021.86 1021.86 1021.82 1021.82 1022.06 1022.14 1022.30 1022.46 1022.66 1022.78 1022.90 1023.02 1023.18 1023.38 1023.50 1023.66 1023.78
1021.94 1022.06 1021.98 1021.94 1022.02 1022.10 1022.10 1022.02 1021.98 1022.02 1022.10 1022.22 1022.26 1022.74 1022.94 1023.10 1023.02 1023.06 1023.18 1023.10 1023.06 1023.10 1023.22 1023.30 1023.38 1023.46 1023.50 1023.54 1023.66 1023.74 1023.78 1023.82 1023.82 1023.82 1023.78 1023.82 1023.82 1023.82 1023.74 1023.50 1023.42 1023.46 1023.02 1022.90 1023.10 1023.02 1022.98 1022.50 1022.26 1022.26 1022.18 1022.14 1021.74 1021.86 1021.70 1021.26 1021.74 1022.14 1022.10 1022.10 1022.10 1022.14 1022.22 1022.38 1022.58 1022.70 1022.82 1022.94 1023.06 1023.10 1023.26 1023.50 1023.66 1023.78
1022.34 1022.42 1022.46 1022.54 1022.54 1022.50 1022.54 1022.54 1022.54 1022.50 1022.50 1022.50 1022.86 1022.90 1022.86 1022.90 1022.98 1022.94 1022.90 1022.90 1022.98 1023.14 1023.30 1023.30 1023.42 1023.66 1023.74 1023.74 1023.82 1023.90 1023.90 1023.90 1023.86 1023.78 1023.82 1023.78 1023.78 1023.78 1023.82 1023.78 1023.66 1023.38 1023.10 1023.06 1023.14 1023.14 1023.06 1022.62 1022.46 1022.34 1022.26 1022.22 1022.22 1021.90 1021.82 1021.50 1021.30 1022.22 1022.18 1022.18 1022.22 1022.26 1022.34 1022.42 1022.54 1022.66 1022.78 1022.94 1023.06 1023.22 1023.46 1023.66 1023.74 1023.86
1022.62 1022.74 1022.94 1023.18 1023.10 1022.94 1022.94 1023.02 1023.06 1023.10 1023.06 1023.26 1023.26 1023.18 1023.18 1023.18 1023.14 1023.18 1023.26 1023.34 1023.54 1023.58 1023.70 1023.78 1023.94 1024.02 1024.10 1023.98 1023.90 1023.94 1024.06 1024.02 1023.98 1023.90 1023.86 1023.86 1023.78 1023.70 1023.62 1023.62 1023.58 1023.58 1023.58 1023.42 1023.22 1023.06 1022.90 1022.82 1022.46 1022.38 1022.34 1022.22 1022.30 1022.14 1021.90 1021.70 1021.90 1021.86 1021.70 1022.22 1022.30 1022.34 1022.38 1022.42 1022.50 1022.58 1022.74 1022.86 1023.06 1023.26 1023.50 1023.66 1023.82 1023.98
1023.06 1023.42 1023.54 1023.62 1023.58 1023.50 1023.38 1023.38 1023.42 1023.54 1023.70 1023.66 1023.62 1023.62 1023.58 1023.58 1023.74 1023.86 1023.94 1024.02 1023.90 1023.94 1024.18 1024.26 1024.22 1024.26 1024.30 1024.34 1024.34 1024.34 1024.34 1024.30 1024.18 1023.98 1023.94 1023.86 1023.78 1023.74 1023.58 1023.42 1023.30 1023.30 1023.30 1023.26 1023.22 1023.14 1022.94 1022.74 1022.62 1022.66 1022.58 1022.42 1022.38 1022.18 1022.18 1021.98 1021.86 1021.66 1021.82 1021.98 1021.82 1022.14 1022.30 1022.38 1022.46 1022.54 1022.66 1022.78 1022.90 1023.06 1023.22 1023.42 1023.74 1023.90
1023.38 1023.70 1023.90 1024.02 1024.10 1023.94 1023.86 1023.82 1023.98 1024.22 1024.38 1024.22 1024.10 1024.10 1024.10 1024.18 1024.38 1024.42 1024.38 1024.38 1024.26 1024.50 1024.66 1024.62 1024.58 1024.70 1024.66 1024.46 1024.58 1024.58 1024.46 1024.26 1024.42 1024.54 1024.26 1024.10 1023.82 1023.82 1023.74 1023.38 1022.98 1023.10 1023.18 1023.14 1023.10 1023.06 1023.02 1022.90 1022.86 1022.70 1022.46 1022.50 1022.62 1022.38 1022.26 1022.18 1021.78 1021.62 1022.10 1021.98 1021.86 1022.14 1022.26 1022.34 1022.42 1022.50 1022.58 1022.70 1022.86 1023.06 1023.22 1023.34 1023.46 1023.66
1023.66 1024.10 1024.42 1024.62 1024.58 1024.58 1024.66 1024.66 1024.70 1024.62 1024.50 1024.42 1024.58 1024.74 1024.82 1024.90 1024.94 1025.02 1025.10 1025.18 1025.18 1025.22 1025.10 1025.02 1025.06 1025.10 1025.02 1024.86 1024.62 1024.54 1024.58 1024.54 1024.70 1024.78 1024.50 1024.26 1024.14 1024.10 1024.02 1023.74 1023.42 1023.10 1023.10 1023.22 1023.14 1023.14 1023.10 1023.02 1022.98 1022.86 1022.50 1022.46 1022.34 1022.30 1022.34 1022.46 1022.26 1021.90 1021.86 1022.06 1022.10 1021.54 1021.86 1022.26 1022.30 1022.30 1022.38 1022.58 1022.82 1023.02 1023.22 1023.38 1023.50 1023.54
1023.98 1024.30 1024.54 1024.62 1024.70 1024.70 1024.70 1024.82 1024.86 1025.06 1025.14 1025.30 1025.34 1025.42 1025.46 1025.46 1025.42 1025.42 1025.42 1025.46 1025.58 1025.66 1025.62 1025.50 1025.46 1025.34 1025.34 1025.18 1025.38 1025.18 1024.86 1024.82 1024.90 1024.94 1024.66 1024.66 1024.38 1024.34 1024.22 1023.82 1023.58 1023.70 1023.30 1023.38 1023.26 1023.22 1023.14 1023.10 1022.98 1022.86 1022.82 1022.74 1022.66 1022.46 1022.46 1022.30 1022.06 1021.90 1021.74 1021.70 1021.78 1021.70 1021.82 1022.02 1022.14 1022.22 1022.38 1022.58 1022.86 1022.98 1023.06 1023.22 1023.26 1023.30
1024.30 1024.42 1024.62 1024.82 1024.98 1025.14 1025.26 1025.34 1025.50 1025.70 1025.70 1025.90 1025.94 1025.90 1025.86 1025.90 1025.86 1025.82 1025.78 1025.78 1025.90 1025.98 1025.70 1025.62 1025.74 1025.66 1025.70 1025.54 1025.66 1025.50 1025.06 1025.10 1025.18 1025.26 1024.82 1024.86 1024.94 1024.54 1024.42 1024.10 1024.10 1024.02 1023.94 1023.62 1023.58 1023.34 1023.18 1023.06 1023.02 1022.86 1022.78 1022.78 1022.78 1022.74 1022.54 1022.18 1021.90 1021.98 1021.82 1021.54 1021.58 1021.62 1021.62 1021.74 1021.86 1022.10 1022.42 1022.58 1022.62 1022.74 1022.94 1023.10 1023.14 1023.18
1024.42 1024.86 1025.14 1025.42 1025.58 1025.74 1025.82 1026.02 1026.22 1026.38 1026.38 1026.34 1026.30 1026.42 1026.42 1026.38 1026.26 1026.26 1026.26 1026.30 1026.30 1026.26 1026.22 1026.26 1026.06 1026.06 1026.02 1025.82 1025.98 1025.86 1025.70 1025.38 1025.34 1025.54 1025.50 1025.22 1025.38 1024.94 1024.86 1024.46 1024.34 1024.50 1024.14 1023.86 1023.78 1023.62 1023.42 1023.26 1023.02 1022.78 1022.86 1022.90 1022.90 1022.78 1022.66 1022.54 1022.42 1022.22 1022.06 1021.78 1021.50 1021.38 1021.66 1021.74 1021.82 1021.94 1022.10 1022.26 1022.46 1022.66 1022.78 1022.90 1023.06 1023.10
1024.82 1025.14 1025.42 1025.82 1025.90 1026.02 1026.10 1026.26 1026.50 1026.62 1026.66 1026.78 1026.82 1026.90 1026.90 1026.86 1026.78 1026.70 1026.66 1026.74 1026.62 1026.50 1026.46 1026.46 1026.54 1026.50 1026.42 1026.38 1026.38 1026.10 1026.06 1025.94 1025.90 1025.74 1025.74 1025.66 1025.38 1025.34 1025.26 1024.86 1024.78 1024.62 1024.50 1024.34 1024.10 1023.98 1023.90 1023.62 1023.34 1023.06 1022.90 1022.78 1022.66 1022.74 1022.74 1022.70 1022.46 1022.26 1022.02 1021.86 1021.98 1021.82 1021.82 1021.94 1021.90 1021.98 1022.06 1022.26 1022.34 1022.26 1022.46 1022.54 1022.78 1023.14
1025.50 1025.50 1025.58 1025.86 1026.10 1026.22 1026.38 1026.66 1026.82 1026.90 1026.94 1026.98 1026.98 1026.98 1026.98 1027.10 1027.14 1027.06 1027.02 1027.06 1026.90 1026.82 1026.74 1026.74 1026.74 1026.70 1026.66 1026.58 1026.50 1026.50 1026.50 1026.38 1026.26 1026.22 1025.82 1025.74 1025.46 1025.30 1025.18 1025.26 1025.22 1025.06 1024.94 1024.82 1024.70 1024.54 1024.30 1023.94 1023.78 1023.58 1023.50 1023.38 1023.26 1022.98 1022.66 1022.78 1022.86 1022.78 1022.30 1022.14 1022.26 1022.22 1022.22 1022.10 1022.06 1022.06 1022.18 1022.30 1022.30 1022.26 1022.34 1022.50 1022.54 1022.86
1025.70 1025.86 1025.98 1026.22 1026.50 1026.62 1026.74 1026.94 1026.98 1027.02 1027.06 1027.10 1027.18 1027.22 1027.22 1027.26 1027.38 1027.34 1027.34 1027.22 1027.10 1027.10 1027.10 1026.98 1026.94 1026.94 1026.90 1026.90 1026.82 1026.82 1026.78 1026.54 1026.38 1026.42 1026.26 1026.18 1025.94 1025.74 1025.34 1025.22 1025.26 1025.18 1024.94 1024.82 1024.86 1024.62 1024.50 1024.38 1024.34 1024.18 1023.90 1023.74 1023.86 1023.94 1023.58 1022.86 1022.90 1022.98 1022.90 1022.42 1022.42 1022.46 1022.34 1022.34 1022.22 1022.34 1022.66 1022.54 1022.50 1022.58 1022.62 1022.66 1022.74 1022.78
1025.86 1026.06 1026.30 1026.58 1026.70 1026.86 1026.94 1026.98 1027.02 1027.06 1027.10 1027.22 1027.26 1027.30 1027.34 1027.38 1027.34 1027.38 1027.34 1027.22 1027.30 1027.26 1027.22 1027.22 1027.38 1027.34 1027.30 1027.22 1026.94 1026.86 1026.86 1026.90 1026.86 1026.70 1026.66 1026.54 1026.30 1026.14 1026.10 1025.86 1025.58 1025.50 1025.38 1025.14 1024.94 1024.82 1024.70 1024.66 1024.62 1024.62 1024.42 1024.38 1024.38 1024.26 1024.06 1023.46 1023.14 1022.90 1023.06 1022.98 1022.58 1022.66 1022.54 1022.26 1022.42 1022.70 1022.86 1023.02 1023.02 1023.22 1023.30 1023.10 1023.18 1023.30
1026.22 1026.50 1026.62 1026.74 1026.90 1026.90 1026.86 1026.90 1026.94 1027.02 1027.14 1027.22 1027.22 1027.22 1027.26 1027.34 1027.38 1027.42 1027.42 1027.50 1027.58 1027.58 1027.62 1027.54 1027.50 1027.46 1027.30 1027.26 1027.26 1027.22 1027.10 1027.02 1026.94 1026.94 1026.78 1026.66 1026.58 1026.42 1026.26 1026.22 1026.02 1025.86 1025.62 1025.30 1025.18 1024.98 1024.86 1024.74 1024.82 1024.82 1024.86 1024.66 1024.50 1024.54 1024.42 1024.30 1023.62 1023.38 1023.30 1023.22 1023.06 1022.70 1022.70 1022.66 1022.90 1023.06 1023.02 1023.10 1023.42 1023.66 1023.74 1023.82 1023.74 1023.66
1026.66 1026.74 1026.86 1026.90 1026.98 1026.98 1026.98 1026.98 1027.02 1027.10 1027.18 1027.26 1027.34 1027.38 1027.30 1027.34 1027.46 1027.58 1027.70 1027.86 1027.86 1027.90 1027.78 1027.66 1027.54 1027.42 1027.50 1027.62 1027.50 1027.38 1027.22 1027.26 1027.18 1027.10 1026.98 1026.82 1026.70 1026.66 1026.50 1026.42 1026.30 1026.14 1025.66 1025.54 1025.38 1025.26 1025.06 1024.94 1024.94 1024.90 1024.78 1024.62 1024.42 1024.14 1024.18 1024.18 1024.10 1023.70 1023.34 1023.18 1023.22 1023.14 1023.10 1023.06 1023.06 1023.14 1023.30 1023.54 1023.62 1023.54 1023.54 1023.74 1023.58 1023.74
1026.86 1026.90 1026.98 1026.98 1026.98 1026.94 1026.90 1026.94 1027.02 1027.18 1027.26 1027.38 1027.42 1027.42 1027.54 1027.62 1027.78 1027.94 1028.06 1028.02 1027.94 1027.78 1027.74 1027.86 1027.86 1027.82 1027.74 1027.62 1027.54 1027.34 1027.14 1027.26 1027.26 1027.22 1027.22 1027.14 1027.02 1026.90 1026.78 1026.50 1026.06 1026.18 1025.82 1025.50 1025.50 1025.34 1025.10 1025.06 1025.02 1024.94 1024.90 1024.58 1024.30 1024.22 1024.06 1023.78 1023.70 1023.58 1023.46 1023.38 1023.34 1023.38 1023.34 1023.30 1023.26 1023.18 1023.22 1023.42 1023.54 1023.62 1023.62 1023.66 1023.58 1023.54
1026.82 1026.98 1027.10 1027.10 1027.10 1027.06 1026.98 1026.94 1027.06 1027.14 1027.26 1027.34 1027.46 1027.58 1027.78 1027.94 1027.98 1028.06 1028.06 1028.06 1028.06 1028.06 1027.98 1027.94 1027.86 1027.66 1027.58 1027.62 1027.62 1027.62 1027.50 1027.50 1027.46 1027.46 1027.42 1027.26 1026.90 1026.74 1026.62 1026.58 1026.30 1026.22 1026.06 1025.82 1025.70 1025.50 1025.26 1025.10 1024.98 1024.78 1024.46 1024.10 1023.90 1023.86 1024.26 1024.42 1024.34 1024.18 1023.86 1023.54 1023.42 1023.42 1023.42 1023.42 1023.46 1023.42 1023.38 1023.46 1023.58 1023.62 1023.78 1023.90 1023.98 1023.58
1026.90 1027.02 1027.14 1027.30 1027.38 1027.34 1027.22 1027.18 1027.18 1027.22 1027.38 1027.54 1027.66 1027.78 1027.86 1027.94 1027.94 1027.86 1027.90 1027.94 1027.94 1027.90 1027.86 1027.74 1027.78 1027.70 1027.74 1027.74 1027.82 1027.82 1027.70 1027.54 1027.54 1027.30 1027.10 1026.98 1026.86 1026.58 1026.38 1026.34 1026.38 1026.34 1026.22 1026.02 1025.82 1025.62 1025.30 1025.06 1024.86 1024.58 1024.42 1024.26 1024.26 1024.22 1024.38 1024.58 1024.54 1024.38 1024.06 1023.74 1023.50 1023.46 1023.42 1023.42 1023.46 1023.50 1023.54 1023.58 1023.54 1023.50 1023.42 1023.34 1023.42 1023.38
1027.06 1027.14 1027.30 1027.38 1027.34 1027.30 1027.26 1027.22 1027.30 1027.46 1027.62 1027.70 1027.78 1027.82 1027.74 1027.78 1027.94 1028.10 1028.10 1028.02 1027.86 1027.78 1027.90 1027.78 1027.82 1027.78 1027.78 1027.82 1027.82 1027.70 1027.62 1027.50 1027.34 1027.02 1026.82 1026.74 1026.66 1026.58 1026.42 1026.30 1026.22 1026.14 1025.98 1025.86 1025.62 1025.34 1025.14 1024.94 1024.78 1024.74 1024.46 1024.38 1024.42 1024.26 1024.34 1024.38 1024.50 1024.22 1024.02 1023.90 1023.66 1023.50 1023.38 1023.42 1023.38 1023.46 1023.54 1023.54 1023.54 1023.50 1023.42 1023.34 1023.34 1023.34
1027.18 1027.22 1027.30 1027.42 1027.46 1027.46 1027.50 1027.54 1027.50 1027.62 1027.70 1027.78 1027.78 1027.78 1027.86 1027.94 1028.02 1028.10 1028.02 1027.94 1027.90 1027.94 1027.90 1027.90 1027.82 1027.86 1027.90 1027.86 1027.54 1027.18 1027.26 1027.26 1026.98 1026.86 1026.82 1026.62 1026.58 1026.50 1026.46 1026.34 1026.18 1025.98 1025.82 1025.82 1025.74 1025.26 1025.14 1024.98 1024.78 1024.74 1024.54 1024.38 1024.34 1024.22 1024.22 1024.30 1024.22 1024.14 1023.90 1023.78 1023.58 1023.62 1023.66 1023.54 1023.30 1023.30 1023.38 1023.34 1023.46 1023.46 1023.30 1023.26 1023.26 1023.30
Wind_Speed
5 5 6 6 5 5 4 4 5 5 5 6 7 8 10 8 9 7 5 5 5 3 3 5 4 4 5 5 3 3 3 3 3 3 4 4 3 5 7 7 7 7 7 7 7 7 7 7 8 7 6 6 6 7 7 7 6 5 4 4 4 4 5 5 4 2 3 4 5 4 3 1 1 1
5 4 4 3 4 3 5 5 5 5 6 7 7 7 4 6 10 8 8 7 5 3 3 2 4 3 5 5 4 3 4 5 4 3 4 4 4 6 7 7 7 7 7 7 7 8 8 8 8 8 7 7 7 7 7 7 6 5 5 5 4 4 4 3 3 3 3 4 3 3 2 2 2 3
5 4 4 3 3 3 4 4 5 4 5 6 6 5 5 5 3 7 5 4 5 4 7 6 2 5 4 5 4 3 4 5 5 4 4 4 6 7 5 7 7 7 8 8 8 8 8 9 9 8 8 7 7 7 7 7 6 7 7 6 6 7 6 5 5 6 6 5 5 5 5 5 5 4
4 5 4 4 4 4 3 4 4 5 5 5 6 5 5 4 4 5 4 6 5 2 3 4 3 5 5 4 6 4 3 3 6 4 4 4 6 5 4 6 7 8 8 8 8 9 9 9 9 8 8 9 8 8 8 8 9 8 8 8 8 8 8 8 7 9 9 8 8 8 7 6 6 5
4 5 5 4 4 4 5 5 4 5 5 4 5 5 5 5 4 6 4 5 1 0 0 3 3 3 6 3 4 5 4 4 3 4 3 4 4 4 5 5 7 8 8 8 9 10 10 10 10 10 10 10 10 9 9 9 9 9 9 10 10 10 9 9 9 10 11 10 10 10 9 8 7 6
5 5 5 4 4 4 5 5 5 5 5 5 5 5 6 6 5 4 5 3 5 4 0 2 2 3 3 4 3 7 7 5 4 5 4 3 4 4 4 5 5 9 9 9 9 10 11 11 11 11 11 11 11 11 10 10 11 11 11 11 12 11 11 11 11 11 11 11 11 10 8 8 7 6
5 4 5 5 4 4 4 4 4 3 4 4 6 6 5 6 5 4 4 5 5 4 4 3 4 4 4 5 5 5 4 3 5 4 5 5 3 3 4 5 4 8 10 11 11 11 12 12 12 12 12 12 12 12 12 12 12 13 13 13 13 13 13 13 13 13 12 12 11 9 7 7 7 7
5 6 5 5 5 5 5 4 5 5 5 6 5 4 3 4 5 5 4 4 6 6 6 4 6 5 5 4 1 4 3 5 5 5 3 2 4 4 4 5 6 8 12 13 13 13 13 13 13 13 14 14 13 13 13 13 13 13 13 12 12 13 13 13 13 13 12 11 11 9 8 8 8 8
6 6 6 6 5 5 5 4 4 5 5 5 6 6 5 4 5 4 5 6 4 5 7 4 1 3 2 2 2 6 6 3 3 2 4 4 5 4 4 4 6 8 11 12 14 14 14 14 14 15 14 14 14 13 13 13 13 14 13 12 12 13 13 13 13 12 11 11 9 11 11 9 10 9
6 6 6 5 6 6 7 7 5 5 6 5 6 7 6 6 5 4 4 4 5 6 6 6 3 2 6 3 2 4 6 6 4 3 3 2 3 4 5 7 6 4 5 5 7 10 12 14 16 16 15 15 14 14 14 14 14 14 14 14 14 15 15 15 14 13 10 11 11 11 11 10 10 10
5 5 5 5 6 7 7 7 7 6 5 6 7 8 8 7 5 5 5 5 6 6 4 2 3 4 2 3 4 1 4 3 3 5 3 5 6 5 7 8 6 5 6 8 11 10 9 10 10 13 15 15 16 16 16 16 16 15 16 15 16 17 16 16 15 12 11 12 12 12 11 10 10 10
5 5 4 5 6 6 6 6 6 7 7 6 6 6 5 6 7 6 5 5 5 4 4 5 5 3 4 2 1 3 4 3 2 5 7 9 7 8 6 7 7 3 4 7 6 7 8 10 12 14 13 15 16 16 15 17 16 17 16 17 18 17 17 17 16 14 12 14 13 12 11 10 8 8
2 4 4 3 2 2 5 6 3 0 3 5 5 4 4 5 6 3 3 5 5 4 4 3 2 3 3 4 5 5 4 8 11 4 5 6 6 2 3 6 4 6 6 5 4 7 7 7 8 7 7 10 13 14 17 14 17 18 18 19 19 18 18 18 17 14 13 15 13 12 11 10 7 6
5 4 5 5 10 9 7 6 6 7 7 6 5 7 7 5 5 7 6 5 5 6 6 7 6 5 6 7 8 7 8 2 1 3 5 8 3 0 5 6 7 5 5 7 8 10 6 7 8 6 9 11 8 8 8 11 14 16 20 20 19 19 18 17 17 15 15 14 13 12 10 8 6 4
6 5 5 4 5 5 6 6 10 11 11 12 9 6 4 3 8 9 7 7 8 7 7 5 5 6 7 7 4 4 1 2 4 2 4 4 1 4 3 7 6 1 8 6 6 11 4 5 8 8 8 10 6 7 10 14 15 16 15 15 15 14 13 12 12 12 11 10 9 8 6 4 3 2
6 6 5 4 3 3 4 3 6 11 14 16 16 16 14 14 12 6 4 6 5 5 6 6 7 5 4 3 4 3 2 3 3 5 4 5 5 5 5 4 7 2 4 5 3 9 3 6 7 8 9 8 5 7 10 11 11 12 13 11 10 9 8 7 7 7 6 7 8 8 7 5 3 2
6 5 5 4 4 4 7 4 5 7 9 12 16 15 14 15 15 15 14 9 3 4 6 6 3 2 3 4 2 3 2 2 2 2 3 3 4 4 5 8 6 4 4 4 4 6 6 4 4 7 9 8 6 5 8 10 10 11 12 12 13 12 12 13 12 11 11 11 10 8 7 6 4 2
6 5 6 5 4 4 3 3 5 7 6 6 7 8 8 8 10 13 13 13 13 9 7 7 5 0 1 3 2 1 1 3 3 3 3 2 3 4 7 6 6 4 5 5 3 3 8 4 4 7 9 5 5 6 9 11 11 11 12 12 13 13 11 10 12 12 11 11 11 11 10 7 6 3
6 6 6 6 5 4 4 4 3 7 6 6 7 8 8 8 8 9 9 8 7 7 7 7 6 3 2 3 2 1 1 0 0 1 1 1 2 2 2 4 3 6 2 3 2 6 4 1 2 6 7 5 6 6 6 9 10 10 10 11 10 11 14 16 18 19 19 18 18 17 16 14 12 9
6 5 6 6 6 5 6 7 7 6 6 7 8 9 7 8 8 8 5 7 7 6 6 6 5 3 3 3 4 3 2 2 1 1 2 3 2 1 1 2 3 1 1 2 4 3 3 1 2 5 4 2 5 4 4 5 5 7 8 9 12 14 14 16 17 19 21 21 18 15 13 11 10 9
6 5 5 6 6 6 6 6 7 4 6 8 8 8 8 7 8 7 6 7 8 9 10 11 11 10 11 11 12 12 10 7 2 4 6 6 4 4 2 3 1 2 3 2 5 2 4 2 3 5 4 2 3 5 5 5 5 2 6 9 11 12 14 15 15 17 17 17 17 16 15 13 11 9
7 8 13 8 6 6 5 7 8 5 5 7 6 7 7 7 8 6 4 3 5 7 9 10 11 11 11 11 11 11 11 11 7 7 6 2 1 1 1 2 2 5 4 3 0 1 3 4 1 2 5 3 2 3 3 3 4 5 2 5 7 9 11 13 14 15 15 16 16 15 15 13 12 7
6 6 8 10 7 5 5 9 9 8 7 7 5 6 8 8 7 2 2 3 5 4 5 5 4 7 7 6 6 6 10 11 8 6 4 2 4 2 1 1 2 3 3 2 1 1 3 5 3 0 4 3 3 1 2 2 3 3 2 1 1 6 9 10 13 15 16 16 17 16 13 14 11 6
6 6 6 7 9 9 10 11 12 11 9 8 5 5 7 8 6 1 3 2 4 5 6 5 4 5 3 4 5 5 6 7 6 5 5 4 3 2 1 1 1 1 2 2 4 2 3 1 4 0 2 4 3 1 3 4 3 3 1 2 1 4 8 10 11 15 15 15 14 13 14 14 10 7
6 5 5 4 7 9 10 12 13 13 12 9 7 6 6 3 3 3 4 4 5 6 5 5 5 5 4 5 5 6 6 6 5 5 5 4 3 1 1 2 1 3 5 2 5 1 2 1 4 3 4 1 3 4 2 1 3 2 1 1 2 2 3 4 4 6 9 12 13 14 13 14 12 9
6 5 5 5 7 11 12 13 14 15 14 12 9 7 6 5 6 5 4 4 5 6 6 6 6 6 6 6 6 6 6 5 5 5 4 4 3 2 1 1 2 2 4 1 6 1 1 2 3 2 2 2 4 1 3 4 2 3 2 1 1 3 4 4 4 6 6 7 7 8 9 13 12 11
5 4 6 6 11 13 14 14 14 14 15 12 9 9 9 8 7 6 6 6 7 7 7 7 7 6 6 6 6 5 5 5 4 4 4 4 3 1 1 2 3 4 5 5 1 1 2 2 2 1 3 2 4 4 2 3 3 1 1 1 1 2 3 4 6 6 5 5 5 7 8 9 11 11
5 6 7 8 13 16 17 17 17 16 14 11 13 13 12 11 9 7 7 7 7 6 7 7 5 5 4 4 5 5 4 5 5 4 3 4 4 4 4 2 2 2 3 5 4 0 1 3 3 2 2 3 3 4 5 3 2 2 2 1 1 3 4 4 5 4 4 5 5 5 5 5 5 6
7 9 12 12 12 13 14 15 14 14 15 16 15 14 13 11 7 7 6 6 6 7 6 5 4 5 4 1 1 3 3 2 3 3 5 4 4 4 4 4 3 2 1 1 3 3 1 0 3 2 0 1 2 4 3 5 3 3 2 1 2 3 5 4 5 5 5 5 6 6 6 5 5 5
16 14 13 13 12 11 11 10 9 9 9 14 15 15 12 8 7 6 7 6 7 6 4 5 5 3 5 4 4 2 2 4 6 5 5 6 7 7 6 8 7 4 2 2 2 3 4 4 2 1 2 2 1 4 4 4 6 4 1 3 3 0 3 5 5 4 5 6 5 5 3 4 6 7
11 12 10 10 12 11 14 13 11 10 10 10 10 8 7 7 6 6 6 6 6 4 4 3 4 3 4 3 6 7 6 5 5 4 4 6 6 6 6 4 5 7 6 4 2 2 3 3 2 1 3 4 4 3 4 2 5 6 3 3 2 2 2 5 5 5 4 4 4 4 4 4 4 6
8 8 7 8 6 6 8 8 8 8 8 8 7 7 6 6 6 5 5 5 5 4 3 2 2 4 5 5 5 5 5 6 5 6 5 4 6 6 5 5 6 5 7 6 6 4 3 1 3 2 2 1 2 5 3 2 5 5 5 2 4 3 3 5 5 5 5 5 4 4 5 6 6 6
7 7 7 7 8 8 8 8 8 7 7 7 7 7 6 6 6 6 7 7 6 5 6 6 5 5 5 5 5 5 6 6 6 6 7 5 6 6 4 5 5 5 6 8 6 6 5 6 2 1 2 1 0 1 2 4 5 3 4 4 1 2 1 2 3 4 4 5 5 5 5 5 4 4
9 7 8 6 7 6 7 7 7 6 6 6 6 7 6 6 6 6 6 6 5 5 5 4 5 5 4 6 6 5 5 6 6 6 6 6 5 5 5 5 5 5 4 4 5 5 6 6 6 5 3 2 1 3 3 2 4 5 5 4 1 2 1 2 4 5 6 2 4 5 4 3 2 3
7 7 8 6 6 6 6 7 6 5 5 4 4 5 5 5 6 6 6 5 4 5 5 5 5 5 5 5 5 6 5 6 6 7 5 3 4 5 4 6 6 6 6 6 6 6 5 6 6 6 6 7 5 1 3 4 4 5 5 3 4 2 1 1 3 4 4 4 3 4 2 1 0 1
6 6 7 7 6 6 7 5 4 4 4 4 4 3 5 6 5 5 5 4 5 5 6 6 6 5 6 5 5 5 5 5 4 5 6 7 6 6 5 5 5 5 5 5 5 5 5 6 6 5 5 6 5 5 4 5 6 3 3 3 4 4 2 3 3 4 4 4 3 4 3 1 2 2
7 6 6 6 5 5 5 4 4 4 4 5 4 4 4 5 4 4 3 3 6 5 5 5 6 6 6 5 5 5 5 6 6 6 6 6 5 5 6 6 5 5 5 5 4 4 4 6 5 6 6 6 6 5 5 4 4 6 4 1 2 2 2 2 4 6 5 4 4 4 2 1 2 4
7 6 6 5 5 4 4 4 4 4 4 4 4 4 5 4 4 4 4 6 6 5 6 6 4 4 4 4 5 6 6 5 5 6 6 5 6 6 5 5 5 5 5 5 5 5 4 4 5 5 5 5 5 5 7 6 5 6 10 3 2 2 2 5 5 4 4 5 5 3 2 1 2 4
6 6 6 5 4 4 4 4 4 5 4 5 4 5 5 5 5 5 6 5 5 5 4 4 3 4 4 4 4 4 5 5 5 5 5 5 5 5 5 5 5 5 4 5 5 5 5 6 6 4 3 3 3 3 2 4 4 5 6 8 1 3 4 4 4 3 3 4 3 2 2 1 0 4
5 5 4 5 4 3 3 3 4 4 5 5 5 4 5 5 5 5 5 4 3 3 4 4 4 5 5 3 3 2 4 4 4 5 4 4 4 3 3 2 2 4 4 5 5 6 5 5 5 4 5 5 5 5 4 4 4 4 4 5 9 5 2 2 2 3 2 1 1 2 1 1 2 3
5 5 3 4 4 3 4 3 4 5 5 4 4 4 5 4 5 3 2 2 4 5 5 4 3 3 2 3 4 5 5 5 5 4 3 3 3 3 4 4 3 3 4 4 4 5 5 4 6 8 6 6 5 1 1 2 3 4 3 3 6 7 5 3 2 2 1 2 2 1 2 1 1 2
5 4 4 4 4 2 3 4 4 5 5 5 5 5 3 3 3 3 3 3 3 3 3 3 3 3 4 4 3 4 4 3 3 3 2 2 4 3 4 3 4 4 4 5 5 6 6 5 5 4 3 3 5 5 3 3 4 5 5 3 2 4 5 6 4 0 1 4 3 1 0 0 0 1
5 4 4 4 4 3 3 3 3 4 4 4 5 4 4 3 3 4 3 3 2 3 3 3 4 3 3 3 1 1 1 2 1 2 2 2 2 4 5 5 3 3 2 4 5 5 5 5 5 5 4 3 1 2 2 3 3 4 4 3 3 4 3 3 3 1 1 1 1 2 2 2 1 2
5 5 4 4 5 4 4 4 4 3 3 3 3 2 4 4 3 2 2 2 3 3 2 3 3 3 3 2 1 0 1 1 1 2 4 3 3 3 3 4 4 4 5 4 5 6 5 5 4 4 2 2 1 3 3 3 4 3 4 3 2 3 4 5 3 3 3 4 4 4 5 3 3 2
4 4 4 4 5 4 3 3 4 4 3 3 3 3 3 3 3 2 3 4 4 3 3 3 2 2 1 1 3 4 3 2 3 3 3 4 5 5 4 3 5 4 5 3 4 6 6 5 4 3 2 2 1 2 2 2 3 3 3 2 2 2 2 3 3 4 4 2 2 4 6 5 4 3
Wind_Direction
174 168 176 188 183 184 172 176 178 173 160 170 171 174 170 171 152 165 191 218 193 224 175 174 228 170 162 163 164 152 164 182 166 156 149 149 158 174 166 159 157 153 150 150 148 146 146 146 150 150 147 145 143 135 134 133 131 129 123 107 106 97 92 90 73 77 136 119 108 97 100 106 105 332
170 162 166 171 161 167 170 181 177 173 172 171 180 183 177 164 166 167 175 211 196 179 215 185 182 195 176 162 162 158 172 188 162 177 162 159 170 185 179 174 170 167 165 162 162 165 167 170 169 168 166 164 159 157 152 149 153 161 167 159 144 142 137 137 147 162 146 141 147 159 189 213 241 269
160 161 171 165 153 158 176 165 167 175 167 180 179 176 156 169 152 159 148 156 249 163 191 224 217 173 180 164 156 160 172 181 166 178 177 176 182 180 188 186 187 183 180 176 177 181 186 188 187 182 184 179 175 176 173 173 181 185 183 174 179 179 180 180 192 195 195 190 197 208 216 235 244 254
168 160 168 180 171 164 162 169 171 178 184 173 174 171 170 157 141 132 146 176 201 213 198 193 190 162 149 158 159 169 173 187 177 184 189 188 178 179 192 198 201 200 192 189 191 196 196 199 201 200 199 198 195 192 189 189 195 199 190 188 195 197 196 197 206 212 211 210 214 220 223 237 244 241
165 168 172 186 180 160 167 179 172 171 176 171 178 167 163 159 158 144 144 173 220 332 37 137 159 144 138 161 175 167 177 180 186 191 204 192 182 186 192 203 212 215 211 205 205 210 209 209 210 210 211 209 208 202 200 202 204 207 203 199 205 208 208 207 211 223 222 215 220 221 223 229 234 234
173 166 172 188 180 173 175 166 178 174 162 169 169 177 175 179 182 182 145 168 162 201 296 80 68 128 175 163 185 179 180 195 182 198 205 207 199 194 196 202 224 222 224 222 226 225 223 219 219 218 219 219 214 211 209 210 213 215 214 209 210 213 212 213 213 220 230 219 218 219 221 226 227 233
166 161 179 193 182 162 169 182 164 150 168 159 163 171 178 186 186 185 176 145 187 191 229 171 159 177 179 183 190 192 186 175 180 194 212 208 203 210 196 212 225 226 225 228 228 233 234 233 226 224 224 224 221 219 217 216 218 222 222 218 216 217 218 217 216 217 223 218 216 216 220 222 225 230
166 175 178 199 180 172 180 188 168 177 154 146 149 165 170 177 185 176 188 193 176 192 184 223 189 181 167 227 163 156 153 165 186 209 215 213 218 216 210 214 227 228 226 227 228 230 234 236 236 232 229 227 225 223 222 220 222 224 227 227 224 224 225 224 222 220 221 221 218 213 212 215 223 233
172 174 189 188 175 174 186 188 186 169 163 173 168 174 184 198 203 172 187 207 171 159 199 192 182 141 167 170 152 163 163 189 193 206 206 215 225 230 232 230 234 239 234 234 234 233 234 236 237 238 236 234 232 229 227 226 227 228 229 229 228 228 229 228 226 223 222 226 226 225 214 210 220 232
180 183 193 179 172 180 190 198 192 181 175 163 175 185 195 198 195 181 192 186 189 187 202 170 156 172 170 179 190 180 176 168 190 222 250 259 232 224 247 240 236 229 227 232 237 240 242 241 240 240 239 238 238 235 231 229 229 229 229 227 226 227 227 226 225 220 210 215 220 227 220 207 218 227
190 190 181 175 178 188 198 191 189 183 173 167 176 185 192 198 168 158 174 178 181 195 169 160 187 164 196 156 181 175 163 156 167 190 215 262 236 221 220 248 240 226 241 239 233 231 230 238 243 244 242 240 238 235 232 231 230 229 228 226 225 226 225 224 222 211 207 214 217 219 220 212 215 227
190 190 180 179 186 193 195 193 188 174 176 164 172 192 183 168 143 145 149 150 162 165 176 184 185 180 159 149 86 102 123 168 255 213 190 219 231 225 225 232 244 242 212 251 253 242 241 247 246 248 245 242 241 242 242 238 234 231 228 226 226 225 223 223 220 213 204 213 214 214 214 209 216 230
78 62 65 75 85 82 81 63 66 109 132 164 163 209 163 162 176 187 149 156 160 170 174 187 112 142 160 174 145 147 161 189 210 182 175 235 246 254 289 266 232 230 236 258 257 255 223 241 246 242 248 243 231 237 234 242 240 235 232 228 226 225 223 221 219 206 202 213 210 209 206 203 207 225
71 67 68 71 83 86 91 103 112 114 126 108 149 173 133 170 183 213 190 175 189 176 183 197 166 162 199 188 193 187 210 192 63 132 159 219 257 50 274 293 250 201 199 240 255 255 219 208 249 232 240 253 215 231 222 232 231 231 231 232 230 227 223 221 217 212 214 212 208 204 200 195 199 207
98 77 65 56 60 73 83 81 80 79 69 65 70 112 140 143 185 187 188 202 191 189 193 167 169 190 196 212 199 217 139 141 186 172 171 216 238 227 247 268 307 226 196 215 239 270 240 177 238 249 241 253 232 224 235 240 241 246 249 247 248 249 246 242 231 218 212 210 206 199 187 179 191 189
101 89 72 51 36 36 55 79 79 73 80 85 80 75 77 80 67 65 159 182 177 171 155 168 192 177 192 174 179 215 186 212 181 205 185 189 201 220 231 244 247 263 181 191 214 261 252 160 222 257 253 253 238 229 242 250 245 243 247 249 249 244 245 243 240 227 206 196 187 173 167 169 168 180
96 98 90 74 37 11 33 62 85 100 95 93 92 89 79 71 75 76 69 68 133 163 148 144 128 179 166 118 140 184 190 168 181 199 214 220 208 211 226 245 268 280 178 165 231 255 266 149 209 235 260 260 250 253 246 246 240 234 229 223 218 208 207 203 194 184 184 182 167 149 145 150 149 62
87 86 95 85 58 23 36 39 92 107 108 97 89 80 68 63 59 62 62 67 65 75 104 112 111 237 119 128 156 174 164 130 153 139 216 209 203 204 219 234 235 243 158 186 183 266 273 247 208 246 264 267 276 251 249 246 237 228 223 217 210 207 200 179 174 176 170 155 149 150 142 130 123 123
84 85 87 87 79 57 51 21 59 115 115 104 93 83 72 66 60 53 46 41 48 61 68 84 100 117 101 100 118 45 17 49 153 175 174 180 189 228 290 318 309 298 249 206 161 253 267 302 207 252 260 280 275 257 252 240 236 230 222 215 205 192 181 175 179 174 162 163 165 162 164 171 163 145
72 70 80 84 72 67 61 25 50 98 114 105 100 92 85 73 63 54 38 40 36 49 61 74 78 79 81 78 75 60 86 49 5 21 77 75 58 55 39 249 306 285 300 180 177 250 271 251 205 274 266 245 257 276 260 266 243 231 219 200 193 194 182 184 184 170 171 174 170 162 162 159 144 144
71 65 65 71 74 64 58 23 47 59 108 102 98 94 83 72 65 44 21 30 43 55 59 64 60 64 71 67 60 55 52 42 39 82 56 19 14 38 6 316 354 296 327 290 190 200 291 267 215 288 288 321 287 294 334 356 3 296 205 201 203 194 190 189 180 176 173 168 159 162 167 160 157 151
68 60 67 75 73 72 55 41 57 58 99 97 105 107 99 79 68 42 13 38 39 55 64 70 69 68 73 74 68 60 53 43 37 75 75 295 92 77 152 243 265 291 298 275 124 169 242 312 323 291 295 327 280 337 356 351 353 351 297 246 223 204 196 188 180 172 166 162 163 169 171 158 144 154
76 68 55 56 63 78 73 69 65 64 85 96 100 112 96 89 78 41 38 74 81 69 71 49 63 53 51 56 61 54 50 52 50 57 74 40 80 60 300 267 309 355 313 281 330 6 291 333 288 310 322 310 287 43 338 345 355 360 10 12 272 211 187 181 173 171 169 168 173 175 161 149 152 154
66 62 59 49 48 72 79 76 71 66 70 92 99 97 95 100 93 141 110 91 106 99 96 94 78 81 66 60 56 48 42 37 37 48 46 43 56 55 343 311 236 224 250 282 14 339 295 272 284 288 197 292 303 293 359 350 11 4 55 86 79 185 172 171 176 175 175 175 172 166 157 159 162 148
78 71 62 60 46 61 70 74 73 71 65 72 75 70 86 76 121 138 111 96 114 108 105 99 92 83 70 62 61 54 47 40 24 25 31 37 28 36 7 324 270 242 261 281 15 44 290 324 294 335 311 291 277 328 318 339 320 358 353 127 106 156 147 168 155 170 173 168 168 174 168 166 165 158
61 52 56 61 52 60 63 66 68 67 67 67 74 65 82 90 90 102 104 130 98 85 81 76 66 55 50 49 44 41 40 31 20 21 21 24 22 8 279 256 273 296 289 299 29 324 250 297 233 275 289 328 296 326 314 306 298 341 348 8 140 183 167 164 158 171 175 177 181 180 170 168 170 167
66 44 52 56 69 73 70 68 66 64 63 60 59 61 59 62 72 78 71 68 67 63 58 60 54 41 38 41 38 31 23 7 6 10 10 7 17 13 270 284 266 246 270 297 313 283 220 251 225 190 268 250 287 301 280 276 305 353 338 272 184 194 176 158 180 180 179 176 176 173 165 169 174 176
65 72 66 76 77 77 76 72 68 64 61 65 59 56 56 54 49 54 56 54 60 65 59 57 53 41 23 37 31 13 356 352 341 333 356 357 352 348 320 269 251 242 275 288 296 240 180 266 293 263 214 252 283 288 290 276 256 254 256 306 166 196 188 175 189 175 172 168 160 166 161 175 182 169
74 84 90 84 79 80 77 73 69 62 56 55 54 52 51 54 50 50 58 60 64 63 55 55 52 34 11 350 297 307 323 309 343 354 355 351 353 349 329 307 273 267 289 317 332 341 38 129 280 305 135 191 210 268 262 263 289 293 217 187 272 206 186 186 181 177 179 174 178 175 186 173 168 174
91 85 79 76 71 64 64 64 59 61 55 54 51 47 46 47 47 43 54 52 62 60 47 43 31 0 344 342 324 310 353 38 24 3 356 354 351 357 359 351 341 338 329 336 11 3 5 18 4 326 338 321 216 264 272 300 300 285 238 216 237 339 175 171 182 185 181 187 175 181 182 174 182 172
81 79 80 83 80 80 74 74 71 63 52 49 43 41 40 43 42 48 54 64 73 55 45 35 17 353 341 331 11 8 359 7 11 9 356 4 345 354 347 354 332 335 334 332 341 16 15 12 338 7 12 317 327 255 268 233 266 301 284 234 194 221 219 178 196 194 182 165 158 151 144 174 187 203
94 95 88 75 64 66 58 53 49 48 50 49 46 41 38 38 37 44 67 76 63 48 36 26 10 13 12 24 358 351 7 10 7 3 7 15 344 351 348 14 340 326 324 345 339 341 359 1 26 26 76 35 320 312 338 263 267 282 298 245 219 236 134 189 193 195 171 148 148 180 185 190 201 203
88 79 69 61 58 55 60 53 50 43 44 41 36 39 35 33 37 41 42 46 34 17 32 36 30 21 13 15 7 10 11 6 356 360 358 17 13 340 22 8 325 345 342 337 340 337 346 340 338 70 64 57 263 246 326 347 322 323 315 311 202 264 275 205 180 154 129 150 184 179 188 205 210 194
90 79 78 65 68 63 65 65 60 54 49 46 38 32 25 29 37 38 42 42 30 29 47 39 40 26 22 26 14 15 13 350 3 7 21 360 355 13 4 350 341 343 353 339 339 341 341 344 346 355 20 356 345 63 54 48 334 333 329 308 281 232 270 151 138 154 164 147 152 143 143 131 149 167
78 91 86 84 78 78 76 73 70 62 62 52 57 46 40 37 36 35 43 25 27 38 41 40 41 35 38 30 19 24 13 10 358 356 351 0 18 34 10 12 359 0 2 4 354 346 346 342 3 8 355 2 6 316 37 52 22 352 331 352 351 347 10 25 124 130 134 120 144 114 84 13 20 115
79 83 91 82 73 76 78 77 78 75 80 67 64 57 56 45 30 38 37 12 42 44 44 42 37 33 32 28 24 24 16 6 12 6 6 11 14 8 18 22 13 7 12 17 345 342 347 4 18 30 10 351 11 358 315 21 44 356 7 345 351 9 12 47 60 80 83 77 66 102 100 175 283 292
90 82 85 86 82 84 93 95 97 94 87 84 75 67 73 65 38 42 28 40 56 50 49 51 43 33 30 24 26 26 21 25 16 8 9 355 6 19 20 7 12 4 18 5 349 356 15 23 18 27 11 7 14 350 318 307 349 25 27 33 16 12 31 31 59 59 34 66 68 69 126 138 269 280
93 84 86 90 100 102 105 108 102 95 89 86 89 80 73 70 58 43 31 52 46 48 39 46 37 38 36 33 41 29 28 25 31 24 11 11 15 13 16 4 353 356 344 338 354 1 357 26 24 20 31 30 7 354 344 332 349 351 17 12 85 3 38 67 49 49 33 28 47 11 50 41 305 309
98 105 111 121 122 120 110 109 103 99 94 88 80 78 73 63 60 49 48 46 45 47 47 51 45 41 44 32 37 51 50 37 32 22 20 18 22 19 8 6 359 343 353 357 350 3 5 17 8 9 22 3 345 290 276 295 314 308 339 10 41 50 31 81 78 48 48 38 26 15 56 22 334 4
107 109 119 113 119 112 108 103 95 99 93 89 87 84 86 77 68 63 55 51 54 48 55 45 35 37 33 27 27 37 57 48 37 23 15 6 5 13 4 343 11 349 3 6 2 347 1 354 343 332 302 265 242 254 247 239 257 289 316 2 24 56 137 102 114 122 46 93 103 34 2 357 23 334
115 105 110 115 111 120 122 114 111 102 99 98 89 74 70 76 77 76 87 67 62 54 52 37 42 54 41 29 30 51 46 21 19 11 2 353 351 356 356 355 12 7 16 352 342 335 321 296 286 286 272 261 277 272 8 10 355 322 329 319 350 12 26 45 153 139 151 138 89 76 44 2 311 357
114 105 93 89 100 104 127 130 115 104 102 95 93 92 90 89 100 92 70 60 65 67 65 50 33 43 33 28 25 40 54 35 357 340 338 353 1 354 5 20 10 347 9 342 322 304 288 300 302 312 328 8 31 42 14 2 337 327 311 299 314 339 10 35 27 1 164 138 115 90 73 302 47 354
97 95 86 86 89 92 89 94 89 98 105 109 118 129 111 93 73 69 62 61 60 65 51 36 25 34 22 10 6 67 75 23 342 344 352 6 18 14 354 348 345 330 316 297 294 289 298 309 326 340 343 50 45 103 59 336 315 319 318 326 331 328 334 6 17 358 36 215 198 193 184 177 117 358
101 91 81 83 87 89 89 98 110 126 138 146 148 122 108 107 86 73 78 65 52 33 12 28 9 16 354 333 298 120 70 354 348 20 357 342 356 359 347 335 337 343 335 338 330 328 326 335 329 334 356 359 322 57 17 349 329 315 304 299 304 358 349 327 332 352 15 40 32 338 289 246 196 269
98 94 88 78 84 84 91 107 130 148 149 145 130 120 117 102 103 85 56 49 49 44 43 27 7 344 332 359 31 16 331 341 10 357 1 3 6 355 350 339 338 337 337 328 341 332 336 329 321 351 16 347 356 24 322 299 295 309 328 0 354 339 337 341 7 337 345 322 299 4 347 319 259 282